Tracking 17694 objects as of 26-May-2016
HD Live streaming from Space Station
objects crossing your sky now

W75/ABS-1B (HOT BIRD 3)

Track W75/ABS-1B (HOT BIRD 3) now!
W75/ABS-1B (HOT BIRD 3) is classified as:


NORAD ID: 24931
Int'l Code: 1997-049A
Perigee: 35,087.1 km
Apogee: 35,283.9 km
Inclination: 5.7 °
Period: 1,405.1 minutes
Semi major axis: 41556 km
RCS: 15.8489 m2 (large)
Launch date: September 2, 1997
Source: European Telecommunications Satellite Organization (EUTE)
Launch site: FRENCH GUIANA (FRGUI)

Cable programming; direct-to-home broadcasting; Europe, North Africa, 20 active channels
Your satellite tracking list
Your tracking list is empty





NASA's NSSDC Master Catalog

Two Line Element Set (TLE):
1 24931U 97049A   16146.29514029 -.00000183  00000-0  00000+0 0  9990
2 24931   5.6659  56.6328 0023679 316.4240 233.4941  1.02481355 69054
Source of the keplerian elements: AFSPC

N2YO: 508